This demonstration page uses our WeatherBlox Daily Observations layout. Learn more.

Left ArrowRight Arrow

Hourly Observations for June 11, 2017

Temp ( °F °C ) Dew Point ( °F °C ) Humidity (%) Winds ( mph kmh ) Pressure ( in mb ) Visibility ( mi km ) Precip ( " mm )
12:07 am 00:07 Clear 73 23 57 14 57 57 SSW 8 13 29.97 1015 10 16 N/A
12:26 am 00:26 Clear 73 23 57 14 57 57 SSW 12 19 29.97 1015 10 16 N/A
12:47 am 00:47 Clear 72 22 57 14 61 61 SSW 10 17 30.00 1016 10 16 N/A
1:07 am 01:07 Clear 72 22 57 14 61 61 SSW 9 15 30.00 1016 10 16 N/A
1:26 am 01:26 Clear 70 21 57 14 64 64 SSW 8 13 30.00 1016 10 16 N/A
1:47 am 01:47 Clear 70 21 57 14 64 64 SSW 8 13 30.00 1016 10 16 N/A
2:06 am 02:06 Clear 70 21 57 14 64 64 S 9 15 30.00 1016 10 16 N/A
2:27 am 02:27 Clear 68 20 57 14 69 69 S 7 11 30.03 1017 10 16 N/A
2:46 am 02:46 Clear 68 20 57 14 69 69 SSW 8 13 30.03 1017 10 16 N/A
3:07 am 03:07 Clear 68 20 57 14 69 69 SSW 8 13 30.03 1017 10 16 N/A
3:26 am 03:26 Clear 68 20 57 14 69 69 SSW 8 13 30.03 1017 10 16 N/A
3:47 am 03:47 Clear 68 20 57 14 69 69 S 8 13 30.03 1017 10 16 N/A
4:07 am 04:07 Clear 66 19 57 14 73 73 SSW 8 13 30.03 1017 10 16 N/A
4:26 am 04:26 Clear 66 19 57 14 73 73 SSW 8 13 30.03 1017 10 16 N/A
4:47 am 04:47 Clear 66 19 57 14 73 73 SSW 7 11 30.03 1017 10 16 N/A
5:06 am 05:06 Clear 66 19 57 14 73 73 SSW 7 11 30.03 1017 10 16 N/A
5:27 am 05:27 Clear 66 19 57 14 73 73 S 7 11 30.06 1018 10 16 N/A
5:47 am 05:47 Clear 64 18 57 14 78 78 S 6 9 30.06 1018 10 16 N/A
6:06 am 06:06 Clear 64 18 57 14 78 78 S 6 9 30.06 1018 10 16 N/A
6:27 am 06:27 Sunny 64 18 57 14 78 78 S 6 9 30.06 1018 10 16 N/A
6:46 am 06:46 Sunny 64 18 57 14 78 78 S 5 7 30.06 1018 10 16 N/A
7:07 am 07:07 Sunny 64 18 57 14 78 78 S 5 7 30.09 1019 10 16 N/A
7:27 am 07:27 Sunny 66 19 57 14 73 73 S 7 11 30.09 1019 10 16 N/A
7:46 am 07:46 Sunny 66 19 57 14 73 73 S 6 9 30.09 1019 10 16 N/A
8:07 am 08:07 Sunny 68 20 59 15 73 73 S 6 9 30.09 1019 10 16 N/A
8:26 am 08:26 Sunny 70 21 59 15 69 69 S 6 9 30.09 1019 10 16 N/A
8:46 am 08:46 Sunny 72 22 59 15 65 65 SSW 8 13 30.06 1018 10 16 N/A
9:07 am 09:07 Sunny 73 23 59 15 61 61 SSW 7 11 30.06 1018 10 16 N/A
9:26 am 09:26 Sunny 75 24 61 16 61 61 SW 10 17 30.09 1019 10 16 N/A
9:47 am 09:47 Sunny 77 25 61 16 57 57 SW 10 17 30.06 1018 10 16 N/A
10:07 am 10:07 Sunny 79 26 61 16 54 54 SW 14 22 30.09 1019 10 16 N/A
10:26 am 10:26 Sunny 81 27 61 16 51 51 SW 13 20 30.09 1019 10 16 N/A
10:47 am 10:47 Sunny 81 27 61 16 51 51 SW 15 24 30.09 1019 10 16 N/A
11:06 am 11:06 Sunny 82 28 61 16 48 48 SW 15 24 30.06 1018 10 16 N/A
11:27 am 11:27 Sunny 82 28 61 16 48 48 WSW 20 31 30.06 1018 10 16 N/A
11:46 am 11:46 Sunny 84 29 61 16 45 45 SW 18 30 30.06 1018 10 16 N/A
12:06 pm 12:06 Partly Cloudy 84 29 59 15 43 43 WSW 15 24 30.06 1018 10 16 N/A
12:27 pm 12:27 Partly Cloudy 84 29 59 15 43 43 WSW 20 31 30.06 1018 10 16 N/A
12:46 pm 12:46 Sunny 84 29 57 14 40 40 SW 18 30 30.06 1018 10 16 N/A
1:07 pm 13:07 Partly Cloudy 86 30 59 15 40 40 SW 17 28 30.06 1018 10 16 N/A
1:26 pm 13:26 Partly Cloudy 86 30 59 15 40 40 SW 17 28 30.06 1018 10 16 N/A
1:47 pm 13:47 Sunny 88 31 59 15 38 38 SW 16 26 30.06 1018 10 16 N/A
2:07 pm 14:07 Mostly Cloudy 86 30 59 15 40 40 SSW 15 24 30.06 1018 10 16 N/A
2:26 pm 14:26 Mostly Cloudy 86 30 61 16 43 43 SW 16 26 30.06 1018 10 16 N/A
2:47 pm 14:47 Mostly Cloudy 88 31 61 16 40 40 SW 14 22 30.06 1018 10 16 N/A
3:06 pm 15:06 Mostly Cloudy 86 30 59 15 40 40 SW 13 20 30.06 1018 10 16 N/A
3:27 pm 15:27 Partly Cloudy 88 31 59 15 38 38 SW 18 30 30.03 1017 10 16 N/A
3:47 pm 15:47 Partly Cloudy 88 31 61 16 40 40 SSW 13 20 30.03 1017 10 16 N/A
4:06 pm 16:06 Partly Cloudy 90 32 59 15 36 36 SSW 20 31 30.00 1016 10 16 N/A
4:27 pm 16:27 Mostly Cloudy 88 31 59 15 38 38 SSW 14 22 30.03 1017 10 16 N/A
4:46 pm 16:46 Mostly Cloudy 88 31 59 15 38 38 SSW 16 26 30.03 1017 10 16 N/A
5:06 pm 17:06 Partly Cloudy 88 31 59 15 38 38 SSW 13 20 30.03 1017 10 16 N/A
5:27 pm 17:27 Partly Cloudy 88 31 59 15 38 38 SW 17 28 30.03 1017 10 16 N/A
5:46 pm 17:46 Partly Cloudy 88 31 59 15 38 38 SW 16 26 30.03 1017 10 16 N/A
6:07 pm 18:07 Partly Cloudy 86 30 59 15 40 40 SSW 16 26 30.03 1017 10 16 N/A
6:26 pm 18:26 Partly Cloudy 86 30 61 16 43 43 SW 13 20 30.03 1017 10 16 N/A
6:46 pm 18:46 Partly Cloudy 88 31 61 16 40 40 SW 13 20 29.97 1015 10 16 N/A
7:07 pm 19:07 Partly Cloudy 88 31 59 15 38 38 SSW 17 28 29.97 1015 10 16 N/A
7:26 pm 19:26 Partly Cloudy 86 30 61 16 43 43 S 14 22 30.00 1016 10 16 N/A
7:47 pm 19:47 Mostly Cloudy 86 30 59 15 40 40 SW 15 24 30.00 1016 10 16 N/A
8:06 pm 20:06 Mostly Cloudy 84 29 61 16 45 45 SSW 16 26 30.00 1016 10 16 N/A
8:27 pm 20:27 Partly Cloudy 84 29 59 15 43 43 SSW 9 15 30.00 1016 10 16 N/A
8:46 pm 20:46 Sunny 82 28 61 16 48 48 SSW 15 24 30.00 1016 10 16 N/A
9:06 pm 21:06 Sunny 81 27 59 15 48 48 SSW 10 17 30.00 1016 10 16 N/A
9:27 pm 21:27 Clear 81 27 59 15 48 48 SSW 10 17 30.00 1016 10 16 N/A
9:46 pm 21:46 Clear 79 26 59 15 51 51 S 8 13 30.00 1016 10 16 N/A
10:07 pm 22:07 Clear 79 26 61 16 54 54 SSW 6 9 30.00 1016 10 16 N/A
10:27 pm 22:27 Clear 77 25 61 16 57 57 S 6 9 30.00 1016 10 16 N/A
10:46 pm 22:46 Clear 77 25 61 16 57 57 S 5 7 30.00 1016 10 16 N/A
11:07 pm 23:07 Partly Cloudy 77 25 61 16 57 57 S 7 11 30.00 1016 10 16 N/A
11:26 pm 23:26 Partly Cloudy 77 25 61 16 57 57 S 7 11 30.03 1017 10 16 N/A
11:47 pm 23:47 Partly Cloudy 75 24 61 16 61 61 S 8 13 30.00 1016 10 16 N/A

Powered by AerisWeather